Wind_Speed
24 24 21 20 21 20 16 11 10 9 7 6 7 10 13 15 18 19 22 24 25 28 30 33 35 37 39 41 45 52 58 59 57 59 59 58 55 52 46 41 48 56 50 51 50
27 25 23 21 19 20 18 14 11 10 10 12 14 17 20 22 23 22 29 29 32 34 36 38 40 43 44 44 47 51 56 54 57 60 63 65 64 60 56 52 59 59 54 51 51
28 27 26 25 21 20 19 16 13 12 12 14 16 20 23 26 26 27 30 34 37 40 44 45 48 50 51 51 53 56 58 55 58 60 64 67 69 70 72 68 61 64 56 50 54
28 29 28 29 26 24 25 17 16 16 16 18 22 24 27 29 33 33 34 38 40 44 46 49 52 55 57 57 57 60 61 62 62 64 65 68 70 71 75 75 75 73 68 61 58
27 29 29 30 29 27 29 21 19 22 22 23 27 30 32 35 36 38 40 43 45 49 52 52 53 54 57 59 60 62 64 67 68 69 70 72 74 75 75 74 77 80 77 66 65
26 27 28 30 30 27 31 24 22 23 26 30 32 35 38 39 42 41 45 48 53 54 53 50 50 51 52 53 57 59 64 69 72 75 76 78 78 79 75 75 77 79 82 77 71
27 27 27 29 31 32 32 25 24 27 30 34 37 39 40 43 45 48 52 54 53 48 47 49 50 51 48 46 44 47 52 55 62 68 76 76 82 81 78 76 78 77 76 78 79
27 28 28 30 32 34 34 31 28 32 36 38 41 43 45 47 49 52 55 51 50 47 48 49 44 37 36 39 40 44 47 49 45 50 58 60 78 77 78 80 81 80 79 77 78
27 29 31 31 33 35 36 36 33 36 41 42 44 48 51 52 50 54 54 51 51 50 50 45 38 38 41 44 46 48 54 54 54 50 50 39 55 48 56 78 83 81 79 79 78
29 31 34 35 35 37 39 40 36 39 42 44 44 51 53 57 59 58 53 50 46 48 46 42 39 41 44 46 50 51 40 37 37 32 26 33 43 43 40 51 70 77 82 80 81
31 33 36 38 38 39 42 43 42 38 43 47 54 52 56 59 60 57 54 50 47 44 42 38 40 41 38 45 50 51 45 42 41 41 41 46 51 49 39 39 46 60 77 81 76
32 35 37 39 40 41 43 47 45 45 43 49 53 54 56 56 53 53 54 46 44 42 39 35 38 38 41 48 48 48 47 41 44 43 47 47 47 43 43 46 52 63 73 73 69
34 37 39 40 43 43 45 48 46 46 53 54 51 54 58 54 52 48 44 42 38 37 32 33 34 36 44 48 37 38 41 34 38 36 39 41 47 48 47 49 46 51 52 59 69
37 40 42 43 44 47 51 52 49 50 53 57 56 55 58 60 56 46 40 37 36 31 28 32 30 35 42 37 36 33 30 37 39 41 43 31 42 43 36 40 32 35 51 53 62
41 42 43 45 48 50 50 49 47 51 52 51 59 61 61 61 55 41 46 36 35 30 26 26 28 33 32 28 25 37 32 34 39 40 21 22 33 37 31 38 44 47 51 59 57
42 43 46 48 50 50 50 47 49 48 48 52 57 60 61 58 53 46 42 37 32 28 24 26 26 29 26 21 22 21 26 23 20 17 32 25 26 32 27 29 30 34 38 44 54
42 45 46 47 46 47 46 47 47 45 46 50 53 55 52 48 39 27 27 28 27 28 24 25 25 26 21 19 17 16 17 22 22 22 28 21 29 22 26 30 34 40 41 47 49
42 43 42 44 46 47 47 46 44 43 45 48 51 50 42 37 34 25 20 20 22 26 29 31 18 23 20 18 18 17 19 28 25 25 30 26 31 34 29 37 39 42 26 37 42
38 39 43 46 47 48 45 40 39 43 45 47 46 34 30 28 24 17 15 17 22 25 29 29 21 24 21 20 21 19 23 19 30 34 38 28 22 21 34 28 35 21 29 29 56
41 43 46 49 48 48 42 39 40 43 44 42 34 25 26 24 20 18 19 20 23 27 29 25 27 20 19 23 21 21 21 26 25 36 36 32 27 31 30 24 18 20 28 23 46
45 47 49 49 48 47 42 40 40 42 40 32 24 24 22 25 26 22 23 25 28 28 29 31 26 15 21 19 23 23 22 25 31 37 40 37 34 27 28 26 27 19 21 25 37
44 43 42 41 42 41 38 37 36 39 39 25 22 26 29 25 20 24 24 26 27 29 26 25 25 19 19 19 24 24 25 27 32 35 40 41 40 34 31 24 28 23 14 29 30
42 43 43 45 44 40 40 41 39 39 39 30 22 23 26 28 27 22 23 27 33 29 26 23 22 23 16 18 21 21 24 29 30 35 37 40 25 26 26 31 8 13 7 35 34
40 44 43 43 44 42 42 41 38 38 36 37 27 22 24 23 27 25 24 27 29 26 25 26 24 28 29 23 25 27 29 30 33 34 32 26 19 13 28 30 17 7 12 33 41
38 41 45 44 41 39 40 39 42 38 37 38 21 26 27 27 23 24 28 26 32 27 28 32 29 30 31 30 31 32 27 26 30 34 35 19 17 16 22 33 24 12 18 27 49
39 40 41 42 41 40 41 39 41 38 37 37 20 20 25 26 27 25 26 28 29 29 31 27 30 35 32 30 30 29 32 33 30 32 34 31 18 25 18 25 24 23 16 23 48
39 41 42 43 39 39 38 38 39 40 35 37 18 14 20 22 25 26 28 29 26 29 27 33 39 41 27 29 26 23 17 19 25 31 39 37 28 20 15 14 21 22 21 18 34
Wind_Direction
33 31 31 31 36 36 31 21 7 358 349 335 316 307 300 297 290 288 289 281 282 276 273 273 270 267 263 262 260 258 254 253 253 252 253 249 244 238 224 227 233 242 237 242 244
22 25 27 28 27 21 15 10 0 348 334 323 318 313 307 296 287 296 284 284 283 281 279 279 277 274 272 269 266 263 259 257 257 255 252 249 246 244 234 225 236 245 241 236 240
15 15 15 14 15 13 5 355 350 341 328 320 314 309 303 297 293 300 295 292 290 288 287 286 284 281 277 273 269 265 263 261 256 254 252 248 244 243 241 232 235 241 240 233 236
7 8 7 6 2 359 356 345 342 342 334 321 313 310 307 303 302 296 292 291 291 289 287 284 283 285 282 278 270 266 264 259 256 254 252 250 249 246 243 240 238 236 234 230 230
358 359 0 359 356 351 349 340 335 335 329 322 317 315 313 309 301 303 299 298 298 297 296 293 289 284 279 275 269 265 260 256 255 252 250 249 249 248 246 243 242 241 242 233 227
351 352 352 351 349 346 345 333 327 326 324 322 317 315 315 313 307 308 305 305 307 307 304 297 290 284 277 271 268 264 260 257 254 252 249 249 246 246 245 244 242 242 241 239 235
345 343 341 342 344 343 342 331 323 321 322 321 320 319 319 317 315 314 313 315 314 308 301 296 292 288 283 275 269 266 266 262 260 258 256 258 252 246 245 244 243 242 242 239 239
337 339 335 333 336 339 338 334 322 321 323 324 324 322 321 321 319 317 319 318 316 306 300 296 290 279 277 274 272 270 272 275 273 270 265 264 257 254 251 247 242 240 240 240 238
333 335 334 330 330 332 334 333 324 325 326 326 325 322 321 320 320 319 320 320 313 305 300 294 283 280 284 283 280 281 281 278 277 273 271 264 269 270 261 253 247 244 239 239 237
332 332 333 332 328 329 331 331 324 324 323 325 322 323 321 322 321 321 321 315 303 296 293 286 279 283 290 293 297 293 283 274 273 269 256 252 243 246 262 260 251 249 241 237 236
332 332 332 330 328 325 326 327 321 320 321 327 325 326 323 324 322 320 318 307 299 292 292 280 283 292 296 295 290 283 269 265 262 248 237 245 236 234 241 251 241 244 248 238 236
333 331 331 330 328 326 326 325 321 320 323 323 323 324 324 325 321 317 311 300 293 295 290 284 291 296 297 294 286 286 274 266 260 255 245 249 255 256 255 260 260 249 246 241 238
331 330 329 328 327 325 323 325 320 320 323 323 322 326 323 322 316 310 296 288 290 294 282 285 293 292 297 294 288 278 278 276 269 256 242 252 252 251 251 256 267 261 247 246 238
332 331 330 329 328 328 327 326 323 321 323 321 322 324 323 323 314 307 291 289 293 292 283 291 296 295 301 295 285 277 266 252 250 250 251 257 259 251 257 260 264 264 269 243 243
332 331 330 329 328 328 325 325 324 323 322 321 323 323 326 320 314 302 294 291 294 289 284 297 296 300 303 302 281 283 261 258 258 242 301 262 256 257 260 262 258 261 265 262 242
332 331 330 328 326 327 328 329 327 323 329 326 329 327 320 313 301 295 293 295 295 292 296 304 301 313 310 300 298 283 265 276 255 286 263 267 265 261 264 264 265 257 259 263 242
332 330 330 329 332 331 329 327 327 330 329 328 328 324 319 311 304 299 296 299 296 294 301 304 300 300 298 298 291 282 270 263 257 263 278 292 281 296 277 272 267 259 262 267 238
331 330 331 331 328 328 328 330 328 329 330 331 332 329 334 329 321 324 315 304 295 299 304 308 292 287 301 287 283 268 265 270 278 272 275 264 271 274 275 272 265 277 277 263 217
329 329 330 329 328 331 334 326 328 332 335 339 335 345 355 2 1 359 329 311 308 304 305 306 299 287 291 288 281 273 265 273 276 281 286 288 282 282 262 269 283 272 269 241 213
329 331 327 328 330 334 330 334 339 339 340 340 339 351 359 5 359 344 330 317 310 310 310 308 306 287 269 284 287 276 271 270 275 281 282 286 281 275 284 291 283 270 262 245 224
329 330 329 331 333 334 340 339 340 340 341 336 342 356 2 355 345 340 333 324 329 320 311 309 310 308 288 284 284 287 283 286 288 278 278 284 272 278 282 282 278 256 276 217 216
326 329 330 331 340 341 337 337 338 340 341 332 341 345 342 347 342 336 339 339 340 331 322 307 315 307 288 283 277 283 283 277 275 274 271 282 287 282 278 294 267 273 242 206 207
328 329 331 335 338 341 340 343 343 340 338 335 327 338 344 335 337 341 342 349 346 338 327 319 325 314 307 287 283 268 268 270 268 270 283 281 303 285 269 269 260 244 252 214 192
332 334 338 339 340 338 338 340 342 342 339 333 321 333 335 339 335 333 333 341 341 343 339 326 316 305 300 296 282 274 270 266 270 273 288 282 295 273 242 246 237 247 259 209 201
333 335 337 339 339 335 333 334 342 343 336 333 314 323 334 333 340 335 336 341 337 333 334 329 326 318 315 303 278 272 263 259 259 269 275 270 285 290 254 238 233 237 179 197 200
329 329 334 335 339 336 337 342 343 343 335 333 312 317 323 329 333 333 336 335 338 337 336 337 341 335 335 307 298 285 275 266 258 260 265 256 272 277 263 250 225 230 189 215 207
323 325 327 332 338 336 339 342 342 340 337 334 314 313 321 329 328 332 342 341 342 343 343 345 343 340 347 333 326 313 290 280 263 261 260 256 254 254 247 245 232 247 252 206 200
Height
5843 5840 5838 5836 5835 5834 5834 5834 5833 5833 5833 5833 5833 5833 5832 5831 5830 5831 5831 5830 5830 5830 5830 5829 5829 5829 5829 5830 5828 5826 5825 5827 5836 5840 5842 5846 5849 5855 5857 5857 5858 5859 5865 5867 5870
5842 5841 5840 5838 5836 5834 5833 5832 5832 5831 5831 5830 5829 5828 5827 5827 5827 5828 5824 5824 5823 5821 5821 5820 5819 5818 5818 5818 5816 5814 5813 5822 5825 5825 5826 5829 5835 5842 5845 5844 5844 5850 5856 5862 5864
5843 5841 5838 5837 5836 5834 5833 5831 5830 5830 5829 5828 5827 5825 5823 5821 5821 5819 5818 5815 5814 5812 5809 5808 5806 5804 5804 5803 5803 5801 5804 5808 5808 5809 5809 5811 5814 5819 5824 5831 5834 5838 5845 5854 5854
5842 5840 5838 5836 5833 5832 5830 5829 5828 5826 5825 5824 5822 5820 5817 5815 5814 5811 5810 5807 5805 5802 5800 5796 5794 5791 5788 5787 5785 5784 5788 5789 5791 5792 5794 5795 5798 5803 5806 5815 5820 5820 5827 5837 5843
5842 5840 5837 5834 5832 5830 5827 5825 5823 5822 5821 5819 5816 5813 5810 5807 5804 5801 5799 5796 5793 5789 5785 5781 5778 5775 5772 5770 5767 5766 5768 5769 5771 5774 5776 5777 5779 5784 5791 5802 5804 5808 5814 5822 5826
5842 5839 5836 5833 5830 5828 5825 5822 5819 5818 5816 5812 5809 5806 5803 5799 5793 5793 5787 5782 5777 5771 5767 5763 5759 5757 5755 5752 5750 5750 5750 5750 5752 5754 5757 5755 5760 5763 5778 5783 5788 5791 5798 5807 5815
5840 5837 5834 5831 5828 5825 5821 5817 5814 5812 5809 5806 5802 5797 5794 5789 5784 5777 5773 5767 5762 5756 5751 5746 5743 5740 5737 5736 5735 5732 5733 5734 5735 5738 5738 5739 5736 5747 5758 5764 5769 5775 5780 5790 5798
5838 5835 5832 5828 5824 5821 5817 5812 5809 5805 5801 5797 5792 5787 5782 5779 5772 5766 5759 5754 5748 5744 5739 5733 5729 5727 5725 5724 5724 5722 5720 5718 5727 5725 5725 5724 5718 5731 5737 5740 5747 5753 5762 5770 5780
5834 5831 5827 5824 5820 5816 5811 5807 5803 5798 5793 5788 5784 5776 5771 5767 5763 5755 5748 5742 5735 5729 5724 5721 5718 5716 5715 5711 5710 5713 5705 5705 5706 5712 5712 5713 5709 5715 5715 5719 5722 5732 5745 5751 5762
5831 5827 5822 5818 5814 5809 5805 5801 5796 5794 5786 5781 5778 5769 5764 5754 5744 5740 5736 5731 5726 5719 5715 5711 5707 5706 5703 5698 5695 5694 5692 5693 5693 5700 5704 5704 5698 5703 5701 5702 5706 5710 5722 5733 5743
5826 5822 5818 5813 5808 5803 5798 5793 5789 5786 5776 5771 5763 5760 5751 5741 5734 5729 5723 5717 5712 5709 5704 5701 5698 5696 5695 5691 5686 5680 5678 5678 5680 5684 5684 5682 5683 5685 5687 5685 5686 5690 5700 5717 5727
5823 5818 5813 5808 5803 5797 5791 5785 5779 5774 5774 5763 5756 5749 5740 5733 5725 5717 5710 5705 5700 5696 5692 5691 5689 5686 5682 5679 5672 5668 5664 5664 5666 5669 5671 5669 5668 5672 5675 5674 5674 5677 5685 5697 5711
5818 5813 5808 5803 5797 5792 5786 5780 5772 5765 5758 5755 5747 5740 5732 5726 5717 5710 5701 5695 5691 5687 5684 5683 5683 5678 5672 5666 5661 5658 5654 5656 5655 5657 5655 5655 5654 5658 5661 5663 5664 5667 5673 5679 5693
5813 5808 5802 5797 5792 5784 5777 5771 5763 5757 5749 5740 5736 5731 5720 5711 5700 5695 5686 5684 5681 5679 5677 5675 5673 5669 5663 5656 5653 5648 5648 5644 5643 5643 5642 5649 5643 5649 5653 5655 5656 5658 5655 5666 5673
5807 5802 5796 5789 5785 5778 5772 5764 5756 5749 5743 5735 5724 5716 5710 5700 5688 5687 5674 5675 5672 5671 5670 5669 5664 5661 5653 5648 5644 5639 5638 5638 5637 5629 5632 5638 5639 5641 5645 5644 5646 5648 5648 5648 5657
5803 5797 5790 5783 5777 5770 5762 5756 5749 5744 5731 5723 5717 5706 5697 5686 5676 5671 5668 5666 5664 5662 5662 5659 5656 5652 5647 5643 5638 5635 5633 5633 5632 5630 5630 5634 5635 5631 5634 5634 5634 5634 5633 5634 5640
5798 5792 5785 5778 5772 5765 5757 5750 5743 5735 5728 5720 5710 5699 5686 5674 5664 5660 5659 5660 5658 5655 5655 5654 5650 5647 5642 5639 5635 5632 5630 5627 5626 5628 5624 5627 5624 5622 5624 5621 5621 5620 5619 5618 5623
5794 5787 5781 5775 5768 5759 5751 5744 5736 5730 5723 5714 5702 5689 5676 5665 5659 5657 5656 5656 5654 5651 5648 5644 5646 5640 5637 5634 5632 5629 5629 5626 5621 5622 5619 5619 5616 5613 5616 5610 5607 5606 5601 5603 5609
5787 5783 5776 5769 5761 5753 5746 5740 5731 5724 5715 5706 5694 5683 5674 5665 5659 5656 5654 5652 5650 5647 5644 5638 5637 5632 5631 5628 5627 5626 5623 5624 5619 5614 5609 5610 5608 5607 5601 5602 5599 5593 5590 5589 5592
5783 5777 5770 5762 5753 5746 5741 5732 5725 5717 5707 5697 5689 5683 5673 5665 5661 5657 5653 5651 5647 5643 5638 5634 5627 5627 5625 5622 5621 5619 5619 5615 5614 5606 5602 5600 5599 5598 5593 5594 5589 5586 5580 5580 5586
5777 5770 5761 5752 5747 5739 5732 5726 5719 5712 5703 5695 5686 5679 5673 5666 5660 5656 5652 5648 5642 5638 5632 5626 5624 5624 5618 5618 5615 5613 5610 5609 5606 5601 5595 5593 5591 5591 5589 5587 5579 5577 5573 5572 5578
5772 5765 5760 5753 5746 5737 5730 5724 5717 5708 5699 5691 5683 5676 5670 5666 5661 5654 5650 5644 5639 5632 5628 5622 5617 5615 5613 5611 5606 5606 5604 5601 5596 5593 5590 5586 5575 5584 5581 5577 5572 5569 5570 5567 5569
5764 5758 5749 5743 5737 5732 5724 5717 5710 5702 5694 5688 5681 5674 5669 5662 5658 5653 5648 5642 5636 5629 5623 5619 5614 5608 5607 5605 5601 5598 5596 5594 5589 5585 5581 5578 5573 5574 5573 5570 5567 5567 5568 5570 5566
5756 5750 5746 5739 5731 5725 5718 5712 5706 5698 5690 5683 5677 5672 5668 5663 5654 5651 5646 5642 5634 5627 5620 5613 5609 5602 5598 5595 5590 5586 5584 5582 5578 5574 5572 5568 5564 5566 5563 5561 5562 5564 5565 5568 5569
5753 5747 5739 5734 5729 5722 5716 5709 5701 5695 5687 5679 5674 5669 5663 5659 5655 5648 5643 5637 5630 5624 5618 5610 5604 5596 5590 5584 5579 5574 5573 5571 5568 5566 5562 5566 5561 5559 5556 5555 5557 5561 5564 5563 5565
5749 5744 5739 5731 5724 5718 5710 5703 5697 5692 5684 5676 5669 5666 5661 5655 5650 5647 5642 5634 5629 5621 5614 5607 5600 5592 5584 5575 5568 5564 5561 5559 5558 5556 5554 5554 5556 5554 5553 5551 5556 5557 5563 5565 5565
5744 5738 5732 5727 5721 5714 5707 5700 5694 5687 5681 5672 5666 5663 5659 5653 5648 5644 5637 5631 5626 5619 5612 5604 5593 5584 5579 5569 5562 5558 5553 5550 5547 5545 5543 5543 5549 5549 5549 5550 5554 5555 5559 5565 5563